Location: Banios
(43.0451°N, 0.2335°E)
Time: 13:54:59
(UTC+00:00)

Cosmos 1634 Rocket - Pass Details

Date: 25 January 2021
Orbit: 960 x 991 km, 82.9° (Epoch: 25 February)

Event Time Altitude Azimuth Distance (km) Brightness Sun altitude
Rises 05:51:32 0° 188° (S) 3,629 7.0 -16.3°
Reaches altitude 10° 05:54:01 10° 188° (S) 2,686 6.3 -15.9°
Maximum altitude 06:00:10 84° 276° (W) 972 3.9 -14.8°
Drops below altitude 10° 06:06:23 10° 7° (N) 2,712 6.3 -13.7°
Sets 06:08:55 0° 8° (N) 3,666 7.0 -13.2°
